Time,TemperatureF,DewpointF,PressureIn,WindDirection,WindDirectionDegrees,WindSpeedMPH,WindSpeedGustMPH,Humidity,HourlyPrecipIn,Conditions,Clouds,dailyrainin,SoftwareType,DateUTC
2013-02-19 00:03:00,38.6,35.9,29.75,NNW,340,0.0,-999.0,90,0.00,,,0.00,Wunderground v.1.15,2013-02-19 08:03:00,
2013-02-19 00:08:00,38.6,35.9,29.75,NNW,340,0.0,-999.0,90,0.00,,,0.00,Wunderground v.1.15,2013-02-19 08:08:00,
2013-02-19 00:14:00,38.7,36.0,29.75,NNW,345,0.0,-999.0,90,0.00,,,0.00,Wunderground v.1.15,2013-02-19 08:14:00,
2013-02-19 00:20:00,38.7,36.0,29.75,NNW,345,0.0,-999.0,90,0.00,,,0.00,Wunderground v.1.15,2013-02-19 08:20:00,
2013-02-19 00:26:00,38.8,36.1,29.75,NNW,345,0.0,-999.0,90,0.00,,,0.00,Wunderground v.1.15,2013-02-19 08:26:00,
2013-02-19 00:31:00,38.8,36.1,29.75,NNW,345,0.0,-999.0,90,0.00,,,0.00,Wunderground v.1.15,2013-02-19 08:31:00,
2013-02-19 00:37:00,38.8,35.8,29.75,NNW,345,0.0,-999.0,89,0.00,,,0.00,Wunderground v.1.15,2013-02-19 08:37:00,
2013-02-19 00:42:00,38.8,35.8,29.75,NNW,345,0.0,-999.0,89,0.00,,,0.00,Wunderground v.1.15,2013-02-19 08:42:00,
2013-02-19 00:48:00,38.8,35.8,29.75,NNE,17,0.0,-999.0,89,0.00,,,0.00,Wunderground v.1.15,2013-02-19 08:48:00,
2013-02-19 00:53:00,38.8,35.8,29.75,NNE,17,0.0,-999.0,89,0.00,,,0.00,Wunderground v.1.15,2013-02-19 08:53:00,
2013-02-19 00:59:00,38.8,35.8,29.75,North,9,0.0,-999.0,89,0.00,,,0.00,Wunderground v.1.15,2013-02-19 08:59:00,
2013-02-19 01:05:00,38.9,35.9,29.75,North,9,0.0,-999.0,89,0.00,,,0.00,Wunderground v.1.15,2013-02-19 09:05:00,
2013-02-19 01:10:00,39.0,36.0,29.75,NNW,347,0.0,-999.0,89,0.00,,,0.00,Wunderground v.1.15,2013-02-19 09:10:00,
2013-02-19 01:16:00,38.8,35.6,29.75,NNW,342,0.0,-999.0,88,0.00,,,0.00,Wunderground v.1.15,2013-02-19 09:16:00,
2013-02-19 01:21:00,38.7,35.5,29.75,NNW,343,0.0,-999.0,88,0.00,,,0.00,Wunderground v.1.15,2013-02-19 09:21:00,
2013-02-19 01:26:00,38.6,35.4,29.74,WNW,292,0.0,-999.0,88,0.00,,,0.00,Wunderground v.1.15,2013-02-19 09:26:00,
2013-02-19 01:31:00,38.4,34.9,29.74,NW,313,0.0,-999.0,87,0.00,,,0.00,Wunderground v.1.15,2013-02-19 09:31:00,
2013-02-19 01:36:00,38.3,34.8,29.74,NW,313,0.0,-999.0,87,0.00,,,0.00,Wunderground v.1.15,2013-02-19 09:36:00,
2013-02-19 01:42:00,38.2,34.7,29.74,ENE,66,0.0,-999.0,87,0.00,,,0.00,Wunderground v.1.15,2013-02-19 09:42:00,
2013-02-19 01:47:00,38.1,34.9,29.74,SW,233,0.0,-999.0,88,0.00,,,0.00,Wunderground v.1.15,2013-02-19 09:47:00,
2013-02-19 01:52:00,38.1,34.6,29.74,SW,233,0.0,-999.0,87,0.00,,,0.00,Wunderground v.1.15,2013-02-19 09:52:00,
2013-02-19 01:57:00,37.9,34.4,29.74,SW,233,0.0,-999.0,87,0.00,,,0.00,Wunderground v.1.15,2013-02-19 09:57:00,
2013-02-19 02:02:00,37.8,34.3,29.74,WSW,244,0.0,-999.0,87,0.00,,,0.00,Wunderground v.1.15,2013-02-19 10:02:00,
2013-02-19 02:07:00,37.8,34.6,29.74,WSW,244,0.0,-999.0,88,0.00,,,0.00,Wunderground v.1.15,2013-02-19 10:07:00,
2013-02-19 02:13:00,37.8,34.6,29.74,WSW,244,0.0,-999.0,88,0.00,,,0.00,Wunderground v.1.15,2013-02-19 10:13:00,
2013-02-19 02:18:00,37.9,34.7,29.74,WSW,244,0.0,-999.0,88,0.00,,,0.00,Wunderground v.1.15,2013-02-19 10:18:00,
2013-02-19 02:23:00,38.0,34.8,29.74,WSW,244,0.0,-999.0,88,0.00,,,0.00,Wunderground v.1.15,2013-02-19 10:23:00,
2013-02-19 02:28:00,38.1,34.9,29.74,West,269,0.0,-999.0,88,0.00,,,0.00,Wunderground v.1.15,2013-02-19 10:28:00,
2013-02-19 02:33:00,38.2,35.0,29.74,West,269,0.0,-999.0,88,0.00,,,0.00,Wunderground v.1.15,2013-02-19 10:33:00,
2013-02-19 02:38:00,38.3,35.1,29.74,WNW,285,1.0,-999.0,88,0.00,,,0.00,Wunderground v.1.15,2013-02-19 10:38:00,
2013-02-19 02:43:00,38.4,35.2,29.74,North,5,0.0,-999.0,88,0.00,,,0.00,Wunderground v.1.15,2013-02-19 10:43:00,
2013-02-19 02:48:00,38.6,35.4,29.74,West,261,0.0,-999.0,88,0.00,,,0.00,Wunderground v.1.15,2013-02-19 10:48:00,
2013-02-19 02:53:00,38.7,35.5,29.74,North,355,0.0,-999.0,88,0.00,,,0.00,Wunderground v.1.15,2013-02-19 10:53:00,
2013-02-19 02:58:00,38.8,35.6,29.74,NW,317,0.0,-999.0,88,0.00,,,0.00,Wunderground v.1.15,2013-02-19 10:58:00,
2013-02-19 03:03:00,38.8,35.3,29.74,NW,317,0.0,-999.0,87,0.00,,,0.00,Wunderground v.1.15,2013-02-19 11:03:00,
2013-02-19 03:08:00,38.8,35.3,29.74,NW,317,0.0,-999.0,87,0.00,,,0.00,Wunderground v.1.15,2013-02-19 11:08:00,
2013-02-19 03:13:00,38.9,35.4,29.74,NW,317,0.0,-999.0,87,0.00,,,0.00,Wunderground v.1.15,2013-02-19 11:13:00,
2013-02-19 03:18:00,39.0,35.5,29.74,NW,319,0.0,-999.0,87,0.00,,,0.00,Wunderground v.1.15,2013-02-19 11:18:00,
2013-02-19 03:23:00,39.0,35.2,29.74,NW,319,0.0,-999.0,86,0.00,,,0.00,Wunderground v.1.15,2013-02-19 11:23:00,
2013-02-19 03:28:00,39.1,35.3,29.74,NW,318,0.0,-999.0,86,0.00,,,0.00,Wunderground v.1.15,2013-02-19 11:28:00,
2013-02-19 03:33:00,39.2,35.4,29.74,NW,319,0.0,-999.0,86,0.00,,,0.00,Wunderground v.1.15,2013-02-19 11:33:00,
2013-02-19 03:38:00,39.1,35.0,29.74,NW,319,0.0,-999.0,85,0.00,,,0.00,Wunderground v.1.15,2013-02-19 11:38:00,
2013-02-19 03:43:00,39.2,35.1,29.74,NW,307,1.0,-999.0,85,0.00,,,0.00,Wunderground v.1.15,2013-02-19 11:43:00,
2013-02-19 03:48:00,39.2,35.1,29.74,NNW,337,1.0,-999.0,85,0.00,,,0.00,Wunderground v.1.15,2013-02-19 11:48:00,
2013-02-19 03:53:00,39.2,35.1,29.74,North,360,0.0,-999.0,85,0.00,,,0.00,Wunderground v.1.15,2013-02-19 11:53:00,
2013-02-19 03:58:00,39.3,35.2,29.74,North,11,0.0,-999.0,85,0.00,,,0.00,Wunderground v.1.15,2013-02-19 11:58:00,
2013-02-19 04:03:00,39.3,35.2,29.74,North,10,0.0,-999.0,85,0.00,,,0.00,Wunderground v.1.15,2013-02-19 12:03:00,
2013-02-19 04:08:00,39.2,34.8,29.74,NNW,340,0.0,-999.0,84,0.00,,,0.00,Wunderground v.1.15,2013-02-19 12:08:00,
2013-02-19 04:13:00,39.2,34.8,29.75,NNW,348,1.0,-999.0,84,0.00,,,0.00,Wunderground v.1.15,2013-02-19 12:13:00,
2013-02-19 04:18:00,39.2,35.1,29.75,North,360,0.0,-999.0,85,0.00,,,0.00,Wunderground v.1.15,2013-02-19 12:18:00,
2013-02-19 04:23:00,39.2,34.8,29.74,North,355,0.0,-999.0,84,0.00,,,0.00,Wunderground v.1.15,2013-02-19 12:23:00,
2013-02-19 04:28:00,39.1,34.7,29.74,North,355,0.0,-999.0,84,0.00,,,0.00,Wunderground v.1.15,2013-02-19 12:28:00,
2013-02-19 04:33:00,39.1,34.7,29.75,NE,51,0.0,-999.0,84,0.00,,,0.00,Wunderground v.1.15,2013-02-19 12:33:00,
2013-02-19 04:38:00,39.1,34.7,29.75,NW,314,0.0,-999.0,84,0.00,,,0.00,Wunderground v.1.15,2013-02-19 12:38:00,
2013-02-19 04:43:00,39.1,34.7,29.75,NW,315,0.0,-999.0,84,0.00,,,0.00,Wunderground v.1.15,2013-02-19 12:43:00,
2013-02-19 04:48:00,39.1,34.7,29.75,NW,315,0.0,-999.0,84,0.00,,,0.00,Wunderground v.1.15,2013-02-19 12:48:00,
2013-02-19 04:53:00,39.0,34.9,29.75,NW,323,0.0,-999.0,85,0.00,,,0.00,Wunderground v.1.15,2013-02-19 12:53:00,
2013-02-19 04:59:00,39.0,34.9,29.75,NW,323,0.0,-999.0,85,0.00,,,0.00,Wunderground v.1.15,2013-02-19 12:59:00,
2013-02-19 05:04:00,38.9,34.5,29.75,North,355,0.0,-999.0,84,0.00,,,0.00,Wunderground v.1.15,2013-02-19 13:04:00,
2013-02-19 05:09:00,38.9,34.5,29.75,North,355,0.0,-999.0,84,0.00,,,0.00,Wunderground v.1.15,2013-02-19 13:09:00,
2013-02-19 05:14:00,38.9,34.5,29.75,North,360,0.0,-999.0,84,0.00,,,0.00,Wunderground v.1.15,2013-02-19 13:14:00,
2013-02-19 05:19:00,38.9,34.5,29.75,North,360,0.0,-999.0,84,0.00,,,0.00,Wunderground v.1.15,2013-02-19 13:19:00,
2013-02-19 05:24:00,38.9,34.5,29.75,North,355,0.0,-999.0,84,0.00,,,0.00,Wunderground v.1.15,2013-02-19 13:24:00,
2013-02-19 05:29:00,38.9,34.5,29.75,North,355,0.0,-999.0,84,0.00,,,0.00,Wunderground v.1.15,2013-02-19 13:29:00,
2013-02-19 05:34:00,39.0,34.6,29.76,North,355,0.0,-999.0,84,0.00,,,0.00,Wunderground v.1.15,2013-02-19 13:34:00,
2013-02-19 05:39:00,39.0,34.6,29.76,North,355,0.0,-999.0,84,0.00,,,0.00,Wunderground v.1.15,2013-02-19 13:39:00,
2013-02-19 05:44:00,39.0,34.3,29.76,NW,326,0.0,-999.0,83,0.00,,,0.00,Wunderground v.1.15,2013-02-19 13:44:00,
2013-02-19 05:49:00,39.0,34.3,29.76,NE,36,0.0,-999.0,83,0.00,,,0.00,Wunderground v.1.15,2013-02-19 13:49:00,
2013-02-19 05:54:00,39.0,34.3,29.76,NE,36,0.0,-999.0,83,0.00,,,0.00,Wunderground v.1.15,2013-02-19 13:54:00,
2013-02-19 05:59:00,39.0,34.3,29.76,NNE,32,0.0,-999.0,83,0.00,,,0.00,Wunderground v.1.15,2013-02-19 13:59:00,
2013-02-19 06:04:00,39.0,34.3,29.77,NNE,32,0.0,-999.0,83,0.00,,,0.00,Wunderground v.1.15,2013-02-19 14:04:00,
2013-02-19 06:09:00,38.9,34.2,29.77,ENE,63,2.0,-999.0,83,0.00,,,0.00,Wunderground v.1.15,2013-02-19 14:09:00,
2013-02-19 06:14:00,38.9,34.2,29.77,North,355,0.0,-999.0,83,0.00,,,0.00,Wunderground v.1.15,2013-02-19 14:14:00,
2013-02-19 06:19:00,38.9,34.2,29.77,NNE,17,0.0,-999.0,83,0.00,,,0.00,Wunderground v.1.15,2013-02-19 14:19:00,
2013-02-19 06:24:00,38.8,34.1,29.77,NNE,29,1.0,-999.0,83,0.00,,,0.00,Wunderground v.1.15,2013-02-19 14:24:00,
2013-02-19 06:29:00,38.8,34.1,29.77,North,355,0.0,-999.0,83,0.00,,,0.00,Wunderground v.1.15,2013-02-19 14:29:00,
2013-02-19 06:34:00,38.8,34.1,29.77,North,355,0.0,-999.0,83,0.00,,,0.00,Wunderground v.1.15,2013-02-19 14:34:00,
2013-02-19 06:39:00,38.7,34.3,29.77,North,355,0.0,-999.0,84,0.00,,,0.00,Wunderground v.1.15,2013-02-19 14:39:00,
2013-02-19 06:44:00,38.7,34.3,29.77,North,355,0.0,-999.0,84,0.00,,,0.00,Wunderground v.1.15,2013-02-19 14:44:00,
2013-02-19 06:49:00,38.6,34.2,29.77,North,355,0.0,-999.0,84,0.00,,,0.00,Wunderground v.1.15,2013-02-19 14:49:00,
2013-02-19 06:54:00,38.6,34.2,29.78,North,355,0.0,-999.0,84,0.00,,,0.00,Wunderground v.1.15,2013-02-19 14:54:00,
2013-02-19 06:59:00,38.5,34.1,29.78,North,355,0.0,-999.0,84,0.00,,,0.00,Wunderground v.1.15,2013-02-19 14:59:00,
2013-02-19 07:04:00,38.4,34.0,29.78,NNE,22,0.0,-999.0,84,0.00,,,0.00,Wunderground v.1.15,2013-02-19 15:04:00,
2013-02-19 07:09:00,38.4,34.0,29.78,North,355,0.0,-999.0,84,0.00,,,0.00,Wunderground v.1.15,2013-02-19 15:09:00,
2013-02-19 07:15:00,38.4,34.0,29.78,North,355,0.0,-999.0,84,0.00,,,0.00,Wunderground v.1.15,2013-02-19 15:15:00,
2013-02-19 07:19:00,38.4,34.0,29.78,North,355,1.0,-999.0,84,0.00,,,0.00,Wunderground v.1.15,2013-02-19 15:19:00,
2013-02-19 07:24:00,38.4,34.0,29.78,North,355,0.0,-999.0,84,0.00,,,0.00,Wunderground v.1.15,2013-02-19 15:24:00,
2013-02-19 07:29:00,38.4,34.3,29.79,North,360,0.0,-999.0,85,0.00,,,0.00,Wunderground v.1.15,2013-02-19 15:29:00,
2013-02-19 07:34:00,38.4,34.3,29.79,North,5,0.0,-999.0,85,0.00,,,0.00,Wunderground v.1.15,2013-02-19 15:34:00,
2013-02-19 07:39:00,38.5,34.4,29.79,North,5,0.0,-999.0,85,0.00,,,0.00,Wunderground v.1.15,2013-02-19 15:39:00,
2013-02-19 07:44:00,38.6,34.5,29.80,North,360,0.0,-999.0,85,0.00,,,0.00,Wunderground v.1.15,2013-02-19 15:44:00,
2013-02-19 07:49:00,38.7,34.6,29.80,North,360,0.0,-999.0,85,0.00,,,0.00,Wunderground v.1.15,2013-02-19 15:49:00,
2013-02-19 07:54:00,38.9,34.5,29.80,North,5,0.0,-999.0,84,0.00,,,0.00,Wunderground v.1.15,2013-02-19 15:54:00,
2013-02-19 08:00:00,39.0,34.6,29.80,North,5,0.0,-999.0,84,0.00,,,0.00,Wunderground v.1.15,2013-02-19 16:00:00,
2013-02-19 08:05:00,39.2,34.8,29.80,North,5,0.0,-999.0,84,0.00,,,0.00,Wunderground v.1.15,2013-02-19 16:05:00,
2013-02-19 08:10:00,39.4,35.0,29.80,North,360,0.0,-999.0,84,0.00,,,0.00,Wunderground v.1.15,2013-02-19 16:10:00,
2013-02-19 08:15:00,39.6,34.9,29.80,North,5,0.0,-999.0,83,0.00,,,0.00,Wunderground v.1.15,2013-02-19 16:15:00,
2013-02-19 08:20:00,39.8,35.1,29.80,NNE,13,1.0,-999.0,83,0.00,,,0.00,Wunderground v.1.15,2013-02-19 16:20:00,
2013-02-19 08:25:00,40.0,34.9,29.80,NNW,340,0.0,-999.0,82,0.00,,,0.00,Wunderground v.1.15,2013-02-19 16:25:00,
2013-02-19 08:30:00,40.0,34.9,29.81,North,355,5.0,-999.0,82,0.00,,,0.00,Wunderground v.1.15,2013-02-19 16:30:00,
2013-02-19 08:35:00,40.1,35.0,29.81,North,349,1.0,-999.0,82,0.00,,,0.00,Wunderground v.1.15,2013-02-19 16:35:00,
2013-02-19 08:40:00,40.2,35.1,29.81,North,360,0.0,-999.0,82,0.00,,,0.00,Wunderground v.1.15,2013-02-19 16:40:00,
2013-02-19 08:45:00,40.2,34.8,29.81,North,350,0.0,-999.0,81,0.00,,,0.00,Wunderground v.1.15,2013-02-19 16:45:00,
2013-02-19 08:50:00,40.3,34.9,29.81,North,360,1.0,-999.0,81,0.00,,,0.00,Wunderground v.1.15,2013-02-19 16:50:00,
2013-02-19 08:55:00,40.4,35.0,29.82,NW,322,1.0,-999.0,81,0.00,,,0.00,Wunderground v.1.15,2013-02-19 16:55:00,
2013-02-19 09:00:00,40.4,34.7,29.81,NE,34,4.0,-999.0,80,0.00,,,0.00,Wunderground v.1.15,2013-02-19 17:00:00,
2013-02-19 09:05:00,40.5,35.1,29.82,NW,313,2.0,-999.0,81,0.00,,,0.00,Wunderground v.1.15,2013-02-19 17:05:00,
2013-02-19 09:10:00,40.5,35.1,29.81,North,360,1.0,-999.0,81,0.00,,,0.00,Wunderground v.1.15,2013-02-19 17:10:00,
2013-02-19 09:15:00,40.6,35.2,29.82,NNE,29,2.0,-999.0,81,0.00,,,0.00,Wunderground v.1.15,2013-02-19 17:15:00,
2013-02-19 09:20:00,40.8,35.4,29.82,NNE,13,0.0,-999.0,81,0.00,,,0.00,Wunderground v.1.15,2013-02-19 17:20:00,
2013-02-19 09:25:00,40.8,35.4,29.82,North,5,0.0,-999.0,81,0.00,,,0.00,Wunderground v.1.15,2013-02-19 17:25:00,
2013-02-19 09:30:00,41.0,35.6,29.82,NNW,339,4.0,-999.0,81,0.00,,,0.00,Wunderground v.1.15,2013-02-19 17:30:00,
2013-02-19 09:35:00,41.1,35.7,29.82,North,355,0.0,-999.0,81,0.00,,,0.00,Wunderground v.1.15,2013-02-19 17:35:00,
2013-02-19 09:40:00,41.3,35.6,29.81,North,350,0.0,-999.0,80,0.00,,,0.00,Wunderground v.1.15,2013-02-19 17:40:00,
2013-02-19 09:45:00,41.5,35.8,29.82,NNW,331,1.0,-999.0,80,0.00,,,0.00,Wunderground v.1.15,2013-02-19 17:45:00,
2013-02-19 09:50:00,41.8,36.1,29.82,NNE,31,1.0,-999.0,80,0.00,,,0.00,Wunderground v.1.15,2013-02-19 17:50:00,
2013-02-19 09:55:00,42.0,36.3,29.82,North,5,0.0,-999.0,80,0.00,,,0.00,Wunderground v.1.15,2013-02-19 17:55:00,
2013-02-19 10:00:00,42.4,36.3,29.82,North,360,0.0,-999.0,79,0.00,,,0.00,Wunderground v.1.15,2013-02-19 18:00:00,
2013-02-19 10:05:00,42.8,36.7,29.82,North,349,0.0,-999.0,79,0.00,,,0.00,Wunderground v.1.15,2013-02-19 18:05:00,
2013-02-19 10:10:00,43.3,36.9,29.81,North,351,0.0,-999.0,78,0.00,,,0.00,Wunderground v.1.15,2013-02-19 18:10:00,
2013-02-19 10:15:00,44.0,37.3,29.82,NNW,341,1.0,-999.0,77,0.00,,,0.00,Wunderground v.1.15,2013-02-19 18:15:00,
2013-02-19 10:20:00,44.5,37.4,29.82,NNE,16,0.0,-999.0,76,0.00,,,0.00,Wunderground v.1.15,2013-02-19 18:20:00,
2013-02-19 10:25:00,45.1,37.6,29.82,NNW,333,0.0,-999.0,75,0.00,,,0.00,Wunderground v.1.15,2013-02-19 18:25:00,
2013-02-19 10:30:00,45.9,38.1,29.82,NNW,333,0.0,-999.0,74,0.00,,,0.00,Wunderground v.1.15,2013-02-19 18:30:00,
2013-02-19 10:35:00,46.7,38.1,29.82,NW,323,1.0,-999.0,72,0.00,,,0.00,Wunderground v.1.15,2013-02-19 18:35:00,
2013-02-19 10:40:00,47.2,38.3,29.82,North,355,0.0,-999.0,71,0.00,,,0.00,Wunderground v.1.15,2013-02-19 18:40:00,
2013-02-19 10:45:00,47.3,38.4,29.82,NNW,342,0.0,-999.0,71,0.00,,,0.00,Wunderground v.1.15,2013-02-19 18:45:00,
2013-02-19 10:50:00,47.8,39.2,29.82,NNW,340,0.0,-999.0,72,0.00,,,0.00,Wunderground v.1.15,2013-02-19 18:50:00,
2013-02-19 10:55:00,48.5,39.9,29.82,NNW,348,0.0,-999.0,72,0.00,,,0.00,Wunderground v.1.15,2013-02-19 18:55:00,
2013-02-19 11:00:00,49.2,40.2,29.82,North,350,0.0,-999.0,71,0.00,,,0.00,Wunderground v.1.15,2013-02-19 19:00:00,
2013-02-19 11:05:00,49.7,40.7,29.82,North,11,1.0,-999.0,71,0.00,,,0.00,Wunderground v.1.15,2013-02-19 19:05:00,
2013-02-19 11:10:00,50.1,40.7,29.82,North,349,1.0,-999.0,70,0.00,,,0.00,Wunderground v.1.15,2013-02-19 19:10:00,
2013-02-19 11:15:00,50.3,40.9,29.82,NNW,329,6.0,-999.0,70,0.00,,,0.00,Wunderground v.1.15,2013-02-19 19:15:00,
2013-02-19 11:20:00,50.0,40.6,29.82,NNW,333,0.0,-999.0,70,0.00,,,0.00,Wunderground v.1.15,2013-02-19 19:20:00,
2013-02-19 11:26:00,50.1,41.4,29.83,North,351,2.0,-999.0,72,0.00,,,0.00,Wunderground v.1.15,2013-02-19 19:26:00,
2013-02-19 11:31:00,50.3,40.1,29.83,North,10,1.0,-999.0,68,0.00,,,0.00,Wunderground v.1.15,2013-02-19 19:31:00,
2013-02-19 11:36:00,50.1,40.7,29.83,North,5,5.0,-999.0,70,0.00,,,0.00,Wunderground v.1.15,2013-02-19 19:36:00,
2013-02-19 11:41:00,50.4,41.7,29.83,NE,56,2.0,-999.0,72,0.00,,,0.00,Wunderground v.1.15,2013-02-19 19:41:00,
2013-02-19 11:46:00,50.6,41.2,29.83,North,350,2.0,-999.0,70,0.00,,,0.00,Wunderground v.1.15,2013-02-19 19:46:00,
2013-02-19 11:51:00,50.8,41.7,29.83,North,355,2.0,-999.0,71,0.00,,,0.00,Wunderground v.1.15,2013-02-19 19:51:00,
2013-02-19 11:56:00,50.9,41.8,29.83,NNW,333,4.0,-999.0,71,0.00,,,0.00,Wunderground v.1.15,2013-02-19 19:56:00,
2013-02-19 12:01:00,51.1,42.0,29.83,North,5,1.0,-999.0,71,0.00,,,0.00,Wunderground v.1.15,2013-02-19 20:01:00,
2013-02-19 12:06:00,51.2,41.7,29.83,NW,310,1.0,-999.0,70,0.00,,,0.00,Wunderground v.1.15,2013-02-19 20:06:00,
2013-02-19 12:11:00,50.8,41.4,29.83,NNE,14,0.0,-999.0,70,0.00,,,0.00,Wunderground v.1.15,2013-02-19 20:11:00,
2013-02-19 12:16:00,50.3,40.1,29.83,NNE,28,0.0,-999.0,68,0.00,,,0.00,Wunderground v.1.15,2013-02-19 20:16:00,
2013-02-19 12:21:00,49.5,40.1,29.83,NW,308,0.0,-999.0,70,0.00,,,0.00,Wunderground v.1.15,2013-02-19 20:21:00,
2013-02-19 12:26:00,49.0,40.7,29.83,North,360,2.0,-999.0,73,0.00,,,0.00,Wunderground v.1.15,2013-02-19 20:26:00,
2013-02-19 12:31:00,48.9,39.9,29.83,NNW,344,0.0,-999.0,71,0.00,,,0.00,Wunderground v.1.15,2013-02-19 20:31:00,
2013-02-19 12:36:00,48.6,38.9,29.83,WNW,286,1.0,-999.0,69,0.00,,,0.00,Wunderground v.1.15,2013-02-19 20:36:00,
2013-02-19 12:41:00,48.5,39.9,29.83,NW,321,2.0,-999.0,72,0.00,,,0.00,Wunderground v.1.15,2013-02-19 20:41:00,
2013-02-19 12:46:00,48.7,40.1,29.83,NNE,13,1.0,-999.0,72,0.00,,,0.00,Wunderground v.1.15,2013-02-19 20:46:00,
2013-02-19 12:51:00,48.8,38.7,29.83,NNE,15,1.0,-999.0,68,0.00,,,0.00,Wunderground v.1.15,2013-02-19 20:51:00,
2013-02-19 12:56:00,48.9,39.9,29.83,WNW,290,0.0,-999.0,71,0.00,,,0.00,Wunderground v.1.15,2013-02-19 20:56:00,
2013-02-19 13:01:00,49.5,40.8,29.83,NNE,18,1.0,-999.0,72,0.00,,,0.00,Wunderground v.1.15,2013-02-19 21:01:00,
2013-02-19 13:06:00,50.1,41.4,29.83,North,350,0.0,-999.0,72,0.00,,,0.00,Wunderground v.1.15,2013-02-19 21:06:00,
2013-02-19 13:11:00,50.5,40.3,29.84,North,360,0.0,-999.0,68,0.00,,,0.00,Wunderground v.1.15,2013-02-19 21:11:00,
2013-02-19 13:16:00,50.7,41.3,29.84,North,5,4.0,-999.0,70,0.00,,,0.00,Wunderground v.1.15,2013-02-19 21:16:00,
2013-02-19 13:21:00,50.6,40.4,29.84,North,360,4.0,-999.0,68,0.00,,,0.00,Wunderground v.1.15,2013-02-19 21:21:00,
2013-02-19 13:26:00,50.5,41.1,29.84,NE,37,0.0,-999.0,70,0.00,,,0.00,Wunderground v.1.15,2013-02-19 21:26:00,
2013-02-19 13:31:00,50.4,41.0,29.84,North,5,5.0,-999.0,70,0.00,,,0.00,Wunderground v.1.15,2013-02-19 21:31:00,
2013-02-19 13:36:00,50.4,40.6,29.84,WSW,242,1.0,-999.0,69,0.00,,,0.00,Wunderground v.1.15,2013-02-19 21:36:00,
2013-02-19 13:41:00,50.4,41.7,29.84,NE,35,5.0,-999.0,72,0.00,,,0.00,Wunderground v.1.15,2013-02-19 21:41:00,
2013-02-19 13:46:00,50.8,41.4,29.84,NW,317,5.0,-999.0,70,0.00,,,0.00,Wunderground v.1.15,2013-02-19 21:46:00,
2013-02-19 13:51:00,50.8,41.7,29.84,NE,45,0.0,-999.0,71,0.00,,,0.00,Wunderground v.1.15,2013-02-19 21:51:00,
2013-02-19 13:56:00,50.5,41.8,29.84,NNE,29,4.0,-999.0,72,0.00,,,0.00,Wunderground v.1.15,2013-02-19 21:56:00,
2013-02-19 14:01:00,49.9,40.9,29.84,NE,44,6.0,-999.0,71,0.00,,,0.00,Wunderground v.1.15,2013-02-19 22:01:00,
2013-02-19 14:06:00,49.2,40.2,29.84,North,360,3.0,-999.0,71,0.00,,,0.00,Wunderground v.1.15,2013-02-19 22:06:00,
2013-02-19 14:11:00,48.6,40.3,29.84,North,355,5.0,-999.0,73,0.00,,,0.00,Wunderground v.1.15,2013-02-19 22:11:00,
2013-02-19 14:16:00,48.1,40.5,29.84,North,5,1.0,-999.0,75,0.00,,,0.00,Wunderground v.1.15,2013-02-19 22:16:00,
2013-02-19 14:21:00,47.8,40.6,29.84,North,355,6.0,-999.0,76,0.00,,,0.00,Wunderground v.1.15,2013-02-19 22:21:00,
2013-02-19 14:26:00,48.0,41.5,29.84,NNE,14,6.0,-999.0,78,0.00,,,0.00,Wunderground v.1.15,2013-02-19 22:26:00,
2013-02-19 14:31:00,48.3,41.4,29.84,NNE,31,1.0,-999.0,77,0.00,,,0.00,Wunderground v.1.15,2013-02-19 22:31:00,
2013-02-19 14:36:00,48.5,42.0,29.84,ENE,65,5.0,-999.0,78,0.00,,,0.00,Wunderground v.1.15,2013-02-19 22:36:00,
2013-02-19 14:41:00,49.0,42.1,29.85,NNW,343,4.0,-999.0,77,0.00,,,0.00,Wunderground v.1.15,2013-02-19 22:41:00,
2013-02-19 14:46:00,49.1,41.9,29.85,WNW,301,1.0,-999.0,76,0.00,,,0.00,Wunderground v.1.15,2013-02-19 22:46:00,
2013-02-19 14:51:00,48.8,41.6,29.85,ESE,115,3.0,-999.0,76,0.00,,,0.00,Wunderground v.1.15,2013-02-19 22:51:00,
2013-02-19 14:56:00,48.3,41.4,29.85,North,9,2.0,-999.0,77,0.00,,,0.00,Wunderground v.1.15,2013-02-19 22:56:00,
2013-02-19 15:01:00,48.1,41.9,29.85,NNW,341,5.0,-999.0,79,0.00,,,0.00,Wunderground v.1.15,2013-02-19 23:01:00,
2013-02-19 15:06:00,48.1,41.6,29.85,North,355,1.0,-999.0,78,0.00,,,0.00,Wunderground v.1.15,2013-02-19 23:06:00,
2013-02-19 15:12:00,48.3,41.8,29.85,NNE,22,5.0,-999.0,78,0.00,,,0.00,Wunderground v.1.15,2013-02-19 23:12:00,
2013-02-19 15:17:00,48.4,41.9,29.85,NW,304,2.0,-999.0,78,0.00,,,0.00,Wunderground v.1.15,2013-02-19 23:17:00,
2013-02-19 15:24:00,48.1,41.2,29.85,NNW,333,5.0,-999.0,77,0.00,,,0.00,Wunderground v.1.15,2013-02-19 23:24:00,
2013-02-19 15:29:00,48.0,41.1,29.85,North,360,6.0,-999.0,77,0.00,,,0.00,Wunderground v.1.15,2013-02-19 23:29:00,
2013-02-19 15:34:00,47.8,40.9,29.85,SSE,156,1.0,-999.0,77,0.00,,,0.00,Wunderground v.1.15,2013-02-19 23:34:00,
2013-02-19 15:39:00,47.5,40.6,29.85,NW,308,0.0,-999.0,77,0.00,,,0.00,Wunderground v.1.15,2013-02-19 23:39:00,
2013-02-19 15:44:00,47.4,40.9,29.85,North,360,0.0,-999.0,78,0.00,,,0.00,Wunderground v.1.15,2013-02-19 23:44:00,
2013-02-19 15:49:00,47.3,41.1,29.85,NNW,327,2.0,-999.0,79,0.00,,,0.00,Wunderground v.1.15,2013-02-19 23:49:00,
2013-02-19 15:54:00,47.0,40.5,29.85,WNW,303,0.0,-999.0,78,0.00,,,0.00,Wunderground v.1.15,2013-02-19 23:54:00,
2013-02-19 15:59:00,46.8,40.6,29.85,NNW,331,0.0,-999.0,79,0.00,,,0.00,Wunderground v.1.15,2013-02-19 23:59:00,
2013-02-19 16:04:00,46.6,40.8,29.85,NNW,344,0.0,-999.0,80,0.00,,,0.00,Wunderground v.1.15,2013-02-20 00:04:00,
2013-02-19 16:09:00,46.4,40.6,29.85,NNE,17,1.0,-999.0,80,0.00,,,0.00,Wunderground v.1.15,2013-02-20 00:09:00,
2013-02-19 16:14:00,46.1,40.3,29.85,North,5,0.0,-999.0,80,0.00,,,0.00,Wunderground v.1.15,2013-02-20 00:14:00,
2013-02-19 16:19:00,45.9,40.4,29.85,NNW,344,0.0,-999.0,81,0.00,,,0.00,Wunderground v.1.15,2013-02-20 00:19:00,
2013-02-19 16:25:00,45.8,40.3,29.85,North,5,0.0,-999.0,81,0.00,,,0.00,Wunderground v.1.15,2013-02-20 00:25:00,
2013-02-19 16:30:00,45.6,40.4,29.85,NNW,342,0.0,-999.0,82,0.00,,,0.00,Wunderground v.1.15,2013-02-20 00:30:00,
2013-02-19 16:35:00,45.4,40.2,29.85,NNW,336,0.0,-999.0,82,0.00,,,0.00,Wunderground v.1.15,2013-02-20 00:35:00,
2013-02-19 16:40:00,45.3,40.1,29.85,NNW,336,0.0,-999.0,82,0.00,,,0.00,Wunderground v.1.15,2013-02-20 00:40:00,
2013-02-19 16:45:00,45.1,40.2,29.86,North,360,1.0,-999.0,83,0.00,,,0.00,Wunderground v.1.15,2013-02-20 00:45:00,
2013-02-19 16:50:00,45.0,40.1,29.86,North,350,0.0,-999.0,83,0.00,,,0.00,Wunderground v.1.15,2013-02-20 00:50:00,
2013-02-19 16:55:00,45.0,40.5,29.86,NNE,25,0.0,-999.0,84,0.00,,,0.00,Wunderground v.1.15,2013-02-20 00:55:00,
2013-02-19 17:00:00,44.8,40.3,29.86,NE,42,0.0,-999.0,84,0.00,,,0.00,Wunderground v.1.15,2013-02-20 01:00:00,
2013-02-19 17:05:00,44.6,40.1,29.86,North,11,0.0,-999.0,84,0.00,,,0.00,Wunderground v.1.15,2013-02-20 01:05:00,
2013-02-19 17:10:00,44.4,39.9,29.86,NW,325,0.0,-999.0,84,0.00,,,0.00,Wunderground v.1.15,2013-02-20 01:10:00,
2013-02-19 17:15:00,44.2,40.0,29.86,NW,321,1.0,-999.0,85,0.00,,,0.00,Wunderground v.1.15,2013-02-20 01:15:00,
2013-02-19 17:20:00,44.0,39.8,29.86,North,11,0.0,-999.0,85,0.00,,,0.00,Wunderground v.1.15,2013-02-20 01:20:00,
2013-02-19 17:25:00,43.8,39.6,29.86,North,355,0.0,-999.0,85,0.00,,,0.00,Wunderground v.1.15,2013-02-20 01:25:00,
2013-02-19 17:30:00,43.5,39.3,29.86,North,10,0.0,-999.0,85,0.00,,,0.00,Wunderground v.1.15,2013-02-20 01:30:00,
2013-02-19 17:35:00,43.2,39.0,29.86,NNE,28,1.0,-999.0,85,0.00,,,0.00,Wunderground v.1.15,2013-02-20 01:35:00,
2013-02-19 17:40:00,42.9,38.7,29.86,North,355,0.0,-999.0,85,0.00,,,0.00,Wunderground v.1.15,2013-02-20 01:40:00,
2013-02-19 17:45:00,42.7,38.5,29.86,North,5,1.0,-999.0,85,0.00,,,0.00,Wunderground v.1.15,2013-02-20 01:45:00,
2013-02-19 17:50:00,42.5,38.3,29.86,NNW,340,0.0,-999.0,85,0.00,,,0.00,Wunderground v.1.15,2013-02-20 01:50:00,
2013-02-19 17:55:00,42.4,38.2,29.87,NNW,333,0.0,-999.0,85,0.00,,,0.00,Wunderground v.1.15,2013-02-20 01:55:00,
2013-02-19 18:00:00,42.2,38.0,29.87,North,360,0.0,-999.0,85,0.00,,,0.00,Wunderground v.1.15,2013-02-20 02:00:00,
2013-02-19 18:05:00,42.0,37.8,29.87,North,360,0.0,-999.0,85,0.00,,,0.00,Wunderground v.1.15,2013-02-20 02:05:00,
2013-02-19 18:10:00,41.7,37.5,29.87,North,360,0.0,-999.0,85,0.00,,,0.00,Wunderground v.1.15,2013-02-20 02:10:00,
2013-02-19 18:15:00,41.4,37.2,29.87,North,360,0.0,-999.0,85,0.00,,,0.00,Wunderground v.1.15,2013-02-20 02:15:00,
2013-02-19 18:20:00,41.0,37.1,29.88,North,360,0.0,-999.0,86,0.00,,,0.00,Wunderground v.1.15,2013-02-20 02:20:00,
2013-02-19 18:25:00,40.7,36.8,29.88,NNE,18,0.0,-999.0,86,0.00,,,0.00,Wunderground v.1.15,2013-02-20 02:25:00,
2013-02-19 18:30:00,40.5,36.9,29.88,NNE,18,0.0,-999.0,87,0.00,,,0.00,Wunderground v.1.15,2013-02-20 02:30:00,
2013-02-19 18:35:00,40.5,36.9,29.88,North,10,0.0,-999.0,87,0.00,,,0.00,Wunderground v.1.15,2013-02-20 02:35:00,
2013-02-19 18:40:00,40.7,37.4,29.88,North,355,0.0,-999.0,88,0.00,,,0.00,Wunderground v.1.15,2013-02-20 02:40:00,
2013-02-19 18:45:00,40.8,37.5,29.88,North,360,0.0,-999.0,88,0.00,,,0.00,Wunderground v.1.15,2013-02-20 02:45:00,
2013-02-19 18:50:00,40.7,37.4,29.88,North,360,0.0,-999.0,88,0.00,,,0.00,Wunderground v.1.15,2013-02-20 02:50:00,
2013-02-19 18:55:00,40.7,37.4,29.89,NNE,23,0.0,-999.0,88,0.00,,,0.00,Wunderground v.1.15,2013-02-20 02:55:00,
2013-02-19 19:00:00,40.6,37.3,29.88,North,355,0.0,-999.0,88,0.00,,,0.00,Wunderground v.1.15,2013-02-20 03:00:00,
2013-02-19 19:05:00,40.5,37.2,29.89,North,355,0.0,-999.0,88,0.00,,,0.00,Wunderground v.1.15,2013-02-20 03:05:00,
2013-02-19 19:10:00,40.3,36.7,29.89,North,355,0.0,-999.0,87,0.00,,,0.00,Wunderground v.1.15,2013-02-20 03:10:00,
2013-02-19 19:15:00,40.1,36.5,29.89,North,355,0.0,-999.0,87,0.00,,,0.00,Wunderground v.1.15,2013-02-20 03:15:00,
2013-02-19 19:20:00,39.8,36.2,29.89,North,355,0.0,-999.0,87,0.00,,,0.00,Wunderground v.1.15,2013-02-20 03:20:00,
2013-02-19 19:25:00,39.5,36.0,29.89,North,355,0.0,-999.0,87,0.00,,,0.00,Wunderground v.1.15,2013-02-20 03:25:00,
2013-02-19 19:30:00,39.2,35.9,29.89,North,355,0.0,-999.0,88,0.00,,,0.00,Wunderground v.1.15,2013-02-20 03:30:00,
2013-02-19 19:35:00,38.8,35.6,29.90,North,355,0.0,-999.0,88,0.00,,,0.00,Wunderground v.1.15,2013-02-20 03:35:00,
2013-02-19 19:40:00,38.6,35.4,29.90,North,355,0.0,-999.0,88,0.00,,,0.00,Wunderground v.1.15,2013-02-20 03:40:00,
2013-02-19 19:45:00,38.3,35.1,29.90,North,355,0.0,-999.0,88,0.00,,,0.00,Wunderground v.1.15,2013-02-20 03:45:00,
2013-02-19 19:50:00,38.1,35.1,29.90,North,355,0.0,-999.0,89,0.00,,,0.00,Wunderground v.1.15,2013-02-20 03:50:00,
2013-02-19 19:55:00,37.9,34.9,29.91,North,355,0.0,-999.0,89,0.00,,,0.00,Wunderground v.1.15,2013-02-20 03:55:00,
2013-02-19 20:00:00,37.7,34.8,29.91,North,355,0.0,-999.0,89,0.00,,,0.00,Wunderground v.1.15,2013-02-20 04:00:00,
2013-02-19 20:05:00,37.4,34.5,29.91,North,355,0.0,-999.0,89,0.00,,,0.00,Wunderground v.1.15,2013-02-20 04:05:00,
2013-02-19 20:10:00,37.2,34.3,29.91,North,355,0.0,-999.0,89,0.00,,,0.00,Wunderground v.1.15,2013-02-20 04:10:00,
2013-02-19 20:16:00,37.1,34.4,29.91,North,355,0.0,-999.0,90,0.00,,,0.00,Wunderground v.1.15,2013-02-20 04:16:00,
2013-02-19 20:20:00,37.0,34.3,29.91,North,355,0.0,-999.0,90,0.00,,,0.00,Wunderground v.1.15,2013-02-20 04:20:00,
2013-02-19 20:26:00,36.8,34.1,29.92,North,355,0.0,-999.0,90,0.00,,,0.00,Wunderground v.1.15,2013-02-20 04:26:00,
2013-02-19 20:31:00,36.7,34.0,29.92,North,355,0.0,-999.0,90,0.00,,,0.00,Wunderground v.1.15,2013-02-20 04:31:00,
2013-02-19 20:36:00,36.5,33.8,29.92,North,355,0.0,-999.0,90,0.00,,,0.00,Wunderground v.1.15,2013-02-20 04:36:00,
2013-02-19 20:41:00,36.4,33.7,29.92,North,355,0.0,-999.0,90,0.00,,,0.00,Wunderground v.1.15,2013-02-20 04:41:00,
2013-02-19 20:46:00,36.1,33.5,29.92,North,355,0.0,-999.0,90,0.00,,,0.00,Wunderground v.1.15,2013-02-20 04:46:00,
2013-02-19 20:51:00,35.9,33.3,29.92,North,355,0.0,-999.0,90,0.00,,,0.00,Wunderground v.1.15,2013-02-20 04:51:00,
2013-02-19 20:56:00,35.9,33.5,29.92,North,355,0.0,-999.0,91,0.00,,,0.00,Wunderground v.1.15,2013-02-20 04:56:00,
2013-02-19 21:00:00,35.9,33.5,29.92,North,355,0.0,-999.0,91,0.00,,,0.00,Wunderground v.1.15,2013-02-20 05:00:00,
2013-02-19 21:05:00,35.9,33.5,29.92,North,355,0.0,-999.0,91,0.00,,,0.00,Wunderground v.1.15,2013-02-20 05:05:00,
2013-02-19 21:10:00,35.9,33.5,29.92,North,355,0.0,-999.0,91,0.00,,,0.00,Wunderground v.1.15,2013-02-20 05:10:00,
2013-02-19 21:15:00,35.9,33.5,29.92,North,355,0.0,-999.0,91,0.00,,,0.00,Wunderground v.1.15,2013-02-20 05:15:00,
2013-02-19 21:20:00,35.9,33.5,29.92,North,355,0.0,-999.0,91,0.00,,,0.00,Wunderground v.1.15,2013-02-20 05:20:00,
2013-02-19 21:25:00,35.7,33.3,29.92,North,355,0.0,-999.0,91,0.00,,,0.00,Wunderground v.1.15,2013-02-20 05:25:00,
2013-02-19 21:30:00,35.4,33.0,29.93,North,355,0.0,-999.0,91,0.00,,,0.00,Wunderground v.1.15,2013-02-20 05:30:00,
2013-02-19 21:35:00,35.1,32.7,29.93,North,355,0.0,-999.0,91,0.00,,,0.00,Wunderground v.1.15,2013-02-20 05:35:00,
2013-02-19 21:40:00,34.9,32.5,29.93,North,355,0.0,-999.0,91,0.00,,,0.00,Wunderground v.1.15,2013-02-20 05:40:00,
2013-02-19 21:45:00,34.6,32.2,29.93,North,355,0.0,-999.0,91,0.00,,,0.00,Wunderground v.1.15,2013-02-20 05:45:00,
2013-02-19 21:50:00,34.4,32.0,29.93,North,355,0.0,-999.0,91,0.00,,,0.00,Wunderground v.1.15,2013-02-20 05:50:00,
2013-02-19 21:55:00,34.3,31.9,29.93,North,355,0.0,-999.0,91,0.00,,,0.00,Wunderground v.1.15,2013-02-20 05:55:00,
2013-02-19 22:00:00,33.9,31.6,29.94,North,355,0.0,-999.0,91,0.00,,,0.00,Wunderground v.1.15,2013-02-20 06:00:00,
2013-02-19 22:05:00,33.5,31.2,29.94,North,355,0.0,-999.0,91,0.00,,,0.00,Wunderground v.1.15,2013-02-20 06:05:00,
2013-02-19 22:10:00,33.1,30.8,29.94,North,355,0.0,-999.0,91,0.00,,,0.00,Wunderground v.1.15,2013-02-20 06:10:00,
2013-02-19 22:15:00,32.9,30.6,29.94,North,355,0.0,-999.0,91,0.00,,,0.00,Wunderground v.1.15,2013-02-20 06:15:00,
2013-02-19 22:20:00,32.7,30.4,29.94,North,355,0.0,-999.0,91,0.00,,,0.00,Wunderground v.1.15,2013-02-20 06:20:00,
2013-02-19 22:25:00,32.5,30.2,29.95,North,355,0.0,-999.0,91,0.00,,,0.00,Wunderground v.1.15,2013-02-20 06:25:00,
2013-02-19 22:30:00,32.4,30.1,29.95,North,355,0.0,-999.0,91,0.00,,,0.00,Wunderground v.1.15,2013-02-20 06:30:00,
2013-02-19 22:35:00,32.3,30.0,29.95,North,355,0.0,-999.0,91,0.00,,,0.00,Wunderground v.1.15,2013-02-20 06:35:00,
2013-02-19 22:40:00,32.2,29.9,29.95,North,355,0.0,-999.0,91,0.00,,,0.00,Wunderground v.1.15,2013-02-20 06:40:00,
2013-02-19 22:45:00,32.3,30.0,29.95,North,355,0.0,-999.0,91,0.00,,,0.00,Wunderground v.1.15,2013-02-20 06:45:00,
2013-02-19 22:50:00,32.3,30.0,29.96,North,355,0.0,-999.0,91,0.00,,,0.00,Wunderground v.1.15,2013-02-20 06:50:00,
2013-02-19 22:56:00,32.2,30.1,29.96,North,355,0.0,-999.0,92,0.00,,,0.00,Wunderground v.1.15,2013-02-20 06:56:00,
2013-02-19 23:01:00,32.2,30.1,29.96,North,355,0.0,-999.0,92,0.00,,,0.00,Wunderground v.1.15,2013-02-20 07:01:00,
2013-02-19 23:06:00,32.1,30.0,29.96,North,355,0.0,-999.0,92,0.00,,,0.00,Wunderground v.1.15,2013-02-20 07:06:00,
2013-02-19 23:11:00,31.9,29.8,29.96,North,355,0.0,-999.0,92,0.00,,,0.00,Wunderground v.1.15,2013-02-20 07:11:00,
2013-02-19 23:16:00,31.8,29.7,29.96,North,355,0.0,-999.0,92,0.00,,,0.00,Wunderground v.1.15,2013-02-20 07:16:00,
2013-02-19 23:21:00,31.7,29.6,29.96,North,355,0.0,-999.0,92,0.00,,,0.00,Wunderground v.1.15,2013-02-20 07:21:00,
2013-02-19 23:26:00,31.6,29.5,29.96,North,355,0.0,-999.0,92,0.00,,,0.00,Wunderground v.1.15,2013-02-20 07:26:00,
2013-02-19 23:31:00,31.5,29.4,29.96,North,355,0.0,-999.0,92,0.00,,,0.00,Wunderground v.1.15,2013-02-20 07:31:00,
2013-02-19 23:36:00,31.5,29.4,29.96,North,355,0.0,-999.0,92,0.00,,,0.00,Wunderground v.1.15,2013-02-20 07:36:00,
2013-02-19 23:41:00,31.5,29.4,29.97,North,355,0.0,-999.0,92,0.00,,,0.00,Wunderground v.1.15,2013-02-20 07:41:00,
2013-02-19 23:46:00,31.5,29.4,29.97,North,355,0.0,-999.0,92,0.00,,,0.00,Wunderground v.1.15,2013-02-20 07:46:00,
2013-02-19 23:51:00,31.4,29.3,29.97,North,355,0.0,-999.0,92,0.00,,,0.00,Wunderground v.1.15,2013-02-20 07:51:00,
2013-02-19 23:56:00,31.3,29.2,29.97,North,355,0.0,-999.0,92,0.00,,,0.00,Wunderground v.1.15,2013-02-20 07:56:00,